Change the Weather History Date:

Tuesday, February 26, 2013

  Actual Average Record
Temperature  
Mean Temperature 34 °F -  
Max Temperature 39 °F 33 °F 67 °F (1957)
Min Temperature 30 °F 16 °F -22 °F (1963)
Degree Days  
Heating Degree Days 30    
Moisture  
Dew Point 27 °F    
Average Humidity 77    
Maximum Humidity 89    
Minimum Humidity 55    
Precipitation  
Precipitation 0.74 in - - ()
Sea Level Pressure  
Sea Level Pressure 29.77 in    
Wind  
Wind Speed 9 mph (ESE)    
Max Wind Speed 16 mph    
Max Gust Speed 29 mph    
Visibility 5 miles    
Events Fog , Rain , Snow    
Averages and records for this station are not official NWS values.
T = Trace of Precipitation, MM = Missing Value Source: NWS Daily Summary

Daily Weather History Graph

Daily Weather History Graph

Search for Another Location

Airport or City:

Trip Planner

Search our weather history database for the weather conditions in past years. The results will help you decide how hot, cold, wet, or windy it might be!

Date:

Astronomy

Feb. 26, 2013 Rise Set
Actual Time 6:59 AM EST 6:08 PM EST
Civil Twilight 6:31 AM EST 6:36 PM EST
Nautical Twilight 5:59 AM EST 7:08 PM EST
Astronomical Twilight 5:27 AM EST 7:40 PM EST
Moon 7:24 PM EST (2/26) 7:00 AM EST (2/26)
Length of Visible Light 12h 04m
Length of Day
11h 08m
Full, 99% of the Moon is Illuminated
Feb 26
Full
Mar 4
Last Quarter
Mar 11
New
Mar 19
First Quarter
Mar 27
Full

Hourly Weather History & Observations

Time (EST) Temp. Windchill Dew Point Humidity Pressure Visibility Wind Dir Wind Speed Gust Speed Precip Events Conditions
12:53 AM 30.0 °F 23.2 °F 19.0 °F 64% 30.11 in 10.0 mi East 6.9 mph - N/A   Clear
1:53 AM 30.0 °F 22.4 °F 19.0 °F 64% 30.10 in 10.0 mi East 8.1 mph - N/A   Clear
2:53 AM 30.0 °F 23.2 °F 19.0 °F 64% 30.08 in 10.0 mi East 6.9 mph - N/A   Clear
3:53 AM 30.0 °F 24.1 °F 19.0 °F 64% 30.05 in 10.0 mi East 5.8 mph - N/A   Clear
4:53 AM 30.0 °F 22.4 °F 19.9 °F 66% 30.03 in 10.0 mi East 8.1 mph - N/A   Clear
5:53 AM 30.9 °F 22.8 °F 19.9 °F 64% 30.01 in 10.0 mi East 9.2 mph - N/A   Clear
6:53 AM 30.9 °F 23.5 °F 19.9 °F 64% 30.02 in 9.0 mi ESE 8.1 mph - N/A   Clear
7:53 AM 30.9 °F 23.5 °F 21.0 °F 67% 30.00 in 8.0 mi East 8.1 mph - N/A   Clear
8:53 AM 33.1 °F 26.1 °F 21.9 °F 64% 29.99 in 7.0 mi East 8.1 mph 16.1 mph N/A   Clear
9:53 AM 35.1 °F 25.9 °F 21.9 °F 59% 29.95 in 7.0 mi East 13.8 mph 20.7 mph N/A   Clear
10:53 AM 36.0 °F 28.0 °F 23.0 °F 59% 29.92 in 7.0 mi ESE 11.5 mph 21.9 mph N/A   Clear
11:53 AM 37.0 °F 31.6 °F 24.1 °F 59% 29.91 in 8.0 mi Variable 6.9 mph 26.5 mph N/A   Mostly Cloudy
12:53 PM 39.0 °F 34.0 °F 24.1 °F 55% 29.86 in 8.0 mi Variable 6.9 mph 17.3 mph N/A   Mostly Cloudy
1:53 PM 37.0 °F 29.3 °F 27.0 °F 67% 29.83 in 6.0 mi ESE 11.5 mph 21.9 mph 0.01 in Rain Light Rain
2:53 PM 35.1 °F 27.9 °F 28.0 °F 76% 29.79 in 3.0 mi ESE 9.2 mph 19.6 mph 0.02 in Rain Light Rain
3:21 PM 35.6 °F 27.5 °F 28.4 °F 75% 29.73 in 2.0 mi ESE 11.5 mph 26.5 mph 0.02 in Rain Light Rain
3:53 PM 34.0 °F 23.8 °F 28.9 °F 82% 29.75 in 2.0 mi East 16.1 mph 26.5 mph 0.06 in Rain Light Rain
4:25 PM 33.8 °F 25.8 °F 28.4 °F 81% 29.72 in 1.8 mi SE 10.4 mph 24.2 mph 0.04 in Rain Rain
4:53 PM 34.0 °F 26.6 °F 30.0 °F 85% 29.73 in 1.2 mi ESE 9.2 mph 26.5 mph 0.17 in Rain Rain
5:46 PM 35.6 °F 29.2 °F 30.2 °F 81% 29.68 in 2.0 mi ESE 8.1 mph 21.9 mph 0.16 in Rain Light Rain
5:53 PM 35.1 °F 31.0 °F 30.9 °F 85% 29.73 in 2.5 mi Variable 4.6 mph - 0.18 in Rain Rain
6:11 PM 35.6 °F 27.5 °F 30.2 °F 81% 29.70 in 1.8 mi SE 11.5 mph 21.9 mph 0.07 in Rain Rain
6:24 PM 33.8 °F 25.8 °F 30.2 °F 87% 29.67 in 2.0 mi ESE 10.4 mph 16.1 mph 0.09 in Rain Rain
6:31 PM 33.8 °F 27.0 °F 30.2 °F 87% 29.68 in 5.0 mi ESE 8.1 mph 16.1 mph 0.09 in Rain Light Rain
6:38 PM 35.6 °F 28.6 °F 30.2 °F 81% 29.67 in 8.0 mi ESE 9.2 mph 21.9 mph 0.10 in   Overcast
6:45 PM 35.6 °F 29.2 °F 30.2 °F 81% 29.67 in 3.0 mi ESE 8.1 mph 21.9 mph 0.12 in Rain Rain
6:47 PM 35.6 °F 29.2 °F 30.2 °F 81% 29.67 in 2.5 mi ESE 8.1 mph 16.1 mph 0.12 in Rain Rain
6:53 PM 35.1 °F 27.4 °F 30.9 °F 85% 29.71 in 2.5 mi East 10.4 mph 19.6 mph 0.13 in Rain Rain
7:01 PM 35.6 °F 26.6 °F 30.2 °F 81% 29.67 in 3.0 mi East 13.8 mph 21.9 mph 0.01 in Rain Light Rain
7:12 PM 35.6 °F 28.0 °F 30.2 °F 81% 29.66 in 2.5 mi East 10.4 mph 20.7 mph 0.02 in Snow Light Snow
7:25 PM 35.6 °F 28.6 °F 32.0 °F 87% 29.67 in 2.0 mi ESE 9.2 mph 19.6 mph 0.03 in Snow Light Snow
7:28 PM 35.6 °F 29.9 °F 32.0 °F 87% 29.67 in 1.5 mi Variable 6.9 mph - 0.03 in Snow Light Snow
7:38 PM 33.8 °F 27.7 °F 30.2 °F 87% 29.66 in 0.5 mi Variable 6.9 mph - 0.03 in Fog , Snow Snow
7:53 PM 34.0 °F 26.6 °F 30.9 °F 89% 29.68 in 1.0 mi East 9.2 mph 17.3 mph 0.03 in Snow Light Snow
8:09 PM 33.8 °F 24.3 °F 30.2 °F 87% 29.63 in 2.0 mi East 13.8 mph 20.7 mph 0.00 in Snow Light Snow
8:18 PM 33.8 °F 23.9 °F 30.2 °F 87% 29.62 in 1.5 mi East 15.0 mph 28.8 mph 0.01 in Snow Light Snow
8:30 PM 33.8 °F 25.3 °F 30.2 °F 87% 29.61 in 2.5 mi East 11.5 mph 25.3 mph 0.02 in Rain Light Rain
8:37 PM 33.8 °F 24.3 °F 30.2 °F 87% 29.61 in 4.0 mi ESE 13.8 mph 25.3 mph 0.03 in Rain Light Rain
8:53 PM 34.0 °F 26.0 °F 30.9 °F 89% 29.64 in 5.0 mi ESE 10.4 mph 19.6 mph 0.04 in Snow Light Snow
9:25 PM 35.6 °F 28.0 °F 30.2 °F 81% 29.59 in 10.0 mi ESE 10.4 mph 23.0 mph 0.02 in   Overcast
9:53 PM 35.1 °F 28.6 °F 30.9 °F 85% 29.62 in 10.0 mi ESE 8.1 mph 21.9 mph 0.04 in   Overcast
10:53 PM 36.0 °F 27.5 °F 30.9 °F 82% 29.59 in 10.0 mi ESE 12.7 mph 27.6 mph 0.03 in   Overcast
11:43 PM 35.6 °F 29.2 °F 30.2 °F 81% 29.56 in 10.0 mi SE 8.1 mph - 0.02 in   Overcast
11:53 PM 36.0 °F 29.0 °F 30.9 °F 82% 29.59 in 10.0 mi SE 9.2 mph 23.0 mph 0.03 in   Overcast